User: anonymous   Login
Location: Houston
(29.7631°N, 95.3631°W)
Time: 07:36:50
(UTC-05:00)
Language:

PRISM - Orbit

View from above orbital plane
View from above orbital plane
View from above satellite
View from above satellite

Ground track
Ground track

The orbit data is extracted from the following two-line orbital elements,

1 33493U 09002B   21263.86287402  .00001682  00000-0  14830-3 0  9990
2 33493  98.1992 231.0628 0013977 338.3906  21.6723 14.97866411688609
Epoch (UTC): 20 September 2021 20:42:32
Eccentricity: 0.0013977
inclination: 98.1992°
perigee height: 564 km
apogee height: 583 km
right ascension of ascending node: 231.0628°
argument of perigee: 338.3906°
revolutions per day: 14.97866411
mean anomaly at epoch: 21.6723°
orbit number at epoch: 68860

The dashed part of the orbit path shows where the satellite is in the earth's shadow,  

DLR